Location: Unspecified
(0.0000°N, 0.0000°E)
Time: 10:30:00
(UTC+00:00)

Courier 1B - Pass Details

Date: 28 September 2023
Orbit: 962 x 1208 km, 28.3° (Epoch: 11 September)

Event Time Altitude Azimuth Distance (km) Brightness Sun altitude
Rises 10:49:44 0° 272° (W) 3,888 10.5 74.6°
Reaches altitude 10° 10:53:07 10° 286° (WNW) 2,974 10.0 75.4°
Maximum altitude 10:58:39 23° 335° (NNW) 2,240 9.6 76.8°
Drops below altitude 10° 11:04:23 10° 24° (NNE) 3,090 10.3 78.2°
Sets 11:08:00 0° 39° (NE) 4,077 10.8 79.1°
